Waarnemingen

Advertentie
Mijn weer
Milford-Haven, Groot Brittannië (3604): temperatuur & dauwpunt: 20.04.2018 21:00:00 - 26.04.2018 21:00:00 (BST)Milford-Haven, Groot Brittannië (3604): temperatuur -20cm & temperatuur -100cm: 20.04.2018 21:00:00 - 26.04.2018 21:00:00 (BST)Milford-Haven, Groot Brittannië (3604): windsnelheid & windstoten: 20.04.2018 21:00:00 - 26.04.2018 21:00:00 (BST)Milford-Haven, Groot Brittannië (3604): windrichting: 20.04.2018 21:00:00 - 26.04.2018 21:00:00 (BST)Milford-Haven, Groot Brittannië (3604): luchtdruk: 20.04.2018 21:00:00 - 26.04.2018 21:00:00 (BST)Milford-Haven, Groot Brittannië (3604): zicht: 20.04.2018 21:00:00 - 26.04.2018 21:00:00 (BST)Milford-Haven, Groot Brittannië (3604): neerslag: 20.04.2018 21:00:00 - 26.04.2018 21:00:00 (BST)
Datum & Tijd tt [°C] td [°C] tt -20cm [°C] tt -100cm [°C] ff [km/u] ff [kn] fx [km/u] fx [kn] dd ppp [hPa] vv [km] rr [mm]
26.04.2018 21:00:00 8,7 6,7 - - 11 6 - - ZW 1014,4 30 0,0
26.04.2018 20:00:00 9,2 6,3 - - 11 6 - - ZW 1014,9 30 0,0
26.04.2018 19:00:00 9,7 6,3 - - 13 7 - - ZW 1015,2 30 0,0
26.04.2018 18:00:00 10,3 6,2 - - 15 8 - - WZW 1015,6 29 0,0
26.04.2018 17:00:00 10,9 6,1 - - 18 10 - - WZW 1016,0 29 0,0
26.04.2018 16:00:00 12,0 7,0 - - 21 11 - - WZW 1016,3 29 0,0
26.04.2018 15:00:00 12,1 6,7 - - 21 11 - - WZW 1016,8 28 0,0
26.04.2018 14:00:00 11,8 6,5 - - 21 11 - - WZW 1016,9 28 0,0
26.04.2018 13:00:00 12,1 6,4 - - 21 11 - - WZW 1017,3 28 0,0
26.04.2018 12:00:00 11,8 6,1 - - 24 13 - - W 1017,3 28 0,0
26.04.2018 11:00:00 11,3 5,7 - - 22 12 - - W 1017,3 27 0,0
26.04.2018 10:00:00 11,1 5,7 11,0 10,7 24 13 - - W 1017,1 29 0,0
26.04.2018 09:00:00 10,4 5,7 - - 22 12 - - W 1017,1 28 0,0
26.04.2018 08:00:00 9,3 5,9 - - 18 10 - - W 1016,9 26 0,0
26.04.2018 07:00:00 7,9 5,2 - - 16 9 - - W 1016,3 24 0,0
26.04.2018 06:00:00 7,4 5,7 - - 21 11 - - W 1016,1 20 0,0
26.04.2018 05:00:00 7,5 5,7 - - 21 11 - - W 1016,0 20 0,0
26.04.2018 04:00:00 7,7 5,8 - - 22 12 - - W 1016,1 21 0,0
26.04.2018 03:00:00 7,8 5,7 - - 26 14 - - W 1016,0 22 0,0
26.04.2018 02:00:00 7,8 5,6 - - 21 11 - - W 1016,0 26 0,0
26.04.2018 01:00:00 8,0 4,9 - - 24 13 - - W 1015,7 27 0,0
26.04.2018 00:00:00 8,1 5,5 - - 24 13 - - W 1015,4 23 0,0
25.04.2018 23:00:00 8,4 5,6 - - 28 15 46 25 W 1015,0 25 0,0
25.04.2018 22:00:00 8,6 6,1 - - 28 15 46 25 W 1014,7 21 0,0
25.04.2018 21:00:00 8,9 6,2 - - 29 16 52 28 W 1014,0 22 0,0
25.04.2018 20:00:00 9,3 6,5 - - 34 18 48 26 W 1013,4 20 0,0
25.04.2018 19:00:00 10,0 6,4 - - 29 16 50 27 W 1013,2 22 0,0
25.04.2018 18:00:00 10,5 6,4 - - 34 18 50 27 W 1013,1 25 0,0
25.04.2018 17:00:00 11,2 6,9 - - 34 18 52 28 W 1012,8 25 0,0
25.04.2018 16:00:00 11,5 7,2 - - 31 17 52 28 W 1012,8 24 0,0
25.04.2018 15:00:00 11,5 6,6 - - 31 17 48 26 WZW 1012,6 27 0,0
25.04.2018 14:00:00 11,9 7,9 - - 26 14 - - WZW 1012,8 24 0,0
25.04.2018 13:00:00 11,8 8,0 - - 24 13 - - WZW 1012,6 23 0,0
25.04.2018 12:00:00 11,7 7,8 - - 24 13 - - WZW 1012,8 26 0,0
25.04.2018 11:00:00 11,4 7,7 - - 22 12 - - WZW 1012,7 29 0,0
25.04.2018 10:00:00 10,6 7,5 10,9 10,7 29 16 - - W 1012,5 25 0,0
25.04.2018 09:00:00 9,6 7,2 - - 24 13 - - WZW 1012,4 23 0,0
25.04.2018 08:00:00 9,3 8,1 - - 24 13 - - WZW 1012,1 17 0,0
25.04.2018 07:00:00 8,5 7,9 - - 22 12 - - W 1012,0 16 0,0
25.04.2018 06:00:00 8,1 7,6 - - 21 11 - - W 1012,0 16 0,0
25.04.2018 05:00:00 7,8 7,4 - - 18 10 - - W 1011,9 14 0,0
25.04.2018 04:00:00 7,7 7,2 - - 15 8 - - W 1011,7 14 0,0
25.04.2018 03:00:00 7,8 7,3 - - 13 7 - - W 1011,8 17 0,0
25.04.2018 02:00:00 8,1 7,7 - - 16 9 - - W 1011,7 15 0,0
25.04.2018 01:00:00 8,4 8,0 - - 21 11 - - W 1011,4 16 0,0
25.04.2018 00:00:00 8,6 8,2 - - 18 10 - - W 1011,5 24 0,0
24.04.2018 23:00:00 8,7 8,4 - - 22 12 - - W 1011,3 30 0,0
24.04.2018 22:00:00 8,9 8,7 - - 16 9 - - W 1011,0 21 0,0
24.04.2018 21:00:00 8,6 8,3 - - 11 6 - - WNW 1010,4 35 0,0
24.04.2018 20:00:00 8,9 8,6 - - 15 8 - - WNW 1009,6 20 0,0
24.04.2018 19:00:00 9,0 8,8 - - 24 13 - - NW 1008,6 19 0,0
24.04.2018 18:00:00 10,2 10,0 - - 31 17 50 27 W 1007,7 7 0,2
24.04.2018 17:00:00 10,5 10,4 - - 24 13 46 25 ZW 1007,7 5 0,0
24.04.2018 16:00:00 10,6 10,4 - - 28 15 - - ZW 1008,4 7 1,8
24.04.2018 15:00:00 10,6 10,4 - - 26 14 48 26 ZW 1009,2 1,5 2,2
24.04.2018 14:00:00 10,6 10,4 - - 24 13 46 25 ZW 1009,9 2,3 0,8
24.04.2018 13:00:00 10,2 9,9 - - 28 15 - - ZZW 1010,6 0,4 1,0
24.04.2018 12:00:00 9,8 9,5 - - 21 11 - - Z 1011,8 2,9 0,6
24.04.2018 11:00:00 9,4 8,8 - - 18 10 - - ZZO 1013,1 4,8 0,6
24.04.2018 10:00:00 9,2 8,7 11,5 10,7 11 6 - - Z 1014,2 2,6 0,6
24.04.2018 09:00:00 8,8 8,3 - - 9 5 - - ZZW 1014,8 5 0,8
24.04.2018 08:00:00 8,9 8,5 - - 11 6 - - W 1015,5 10 1,8
24.04.2018 07:00:00 9,1 8,7 - - 21 11 - - WZW 1015,5 5 1,6
24.04.2018 06:00:00 9,7 9,4 - - 15 8 - - WZW 1015,5 5 0,6
24.04.2018 05:00:00 9,6 9,3 - - 16 9 - - W 1016,0 8 0,0
24.04.2018 04:00:00 9,5 9,1 - - 16 9 - - W 1015,8 12 0,0
24.04.2018 03:00:00 9,4 9,0 - - 16 9 - - W 1015,9 8 0,0
24.04.2018 02:00:00 9,2 8,8 - - 16 9 - - W 1016,1 8 0,0
24.04.2018 01:00:00 9,4 9,0 - - 15 8 - - W 1016,0 11 0,0
24.04.2018 00:00:00 9,5 9,2 - - 24 13 - - W 1015,7 11 0,0
23.04.2018 23:00:00 9,7 9,5 - - 22 12 - - W 1015,6 9 0,0
23.04.2018 22:00:00 9,8 9,7 - - 22 12 - - WZW 1015,4 8 0,0
23.04.2018 21:00:00 10,1 9,9 - - 21 11 - - WZW 1015,2 0,3 0,0
23.04.2018 20:00:00 10,1 9,8 - - 21 11 - - ZW 1014,9 1,5 0,0
23.04.2018 19:00:00 9,9 9,5 - - 21 11 - - WZW 1015,2 4,0 0,2
23.04.2018 18:00:00 9,5 9,1 - - 24 13 - - ZW 1015,2 5 0,2
23.04.2018 17:00:00 9,7 8,7 - - 24 13 - - ZW 1015,7 9 0,0
23.04.2018 16:00:00 9,7 8,6 - - 24 13 48 26 ZW 1016,3 15 0,0
23.04.2018 15:00:00 10,4 8,2 - - 24 13 - - ZZW 1017,0 15 0,0
23.04.2018 14:00:00 10,6 8,1 - - 26 14 - - ZZW 1016,9 35 0,0
23.04.2018 13:00:00 11,8 8,1 - - 21 11 - - ZW 1017,2 35 0,0
23.04.2018 12:00:00 10,9 8,0 - - 21 11 - - WZW 1017,3 1,5 0,0
23.04.2018 11:00:00 11,7 8,6 - - 16 9 - - WZW 1017,1 45 0,0
23.04.2018 10:00:00 11,1 8,6 11,7 10,7 18 10 - - WZW 1016,8 30 0,0
23.04.2018 09:00:00 10,4 7,9 - - 18 10 - - W 1016,7 30 0,0
23.04.2018 08:00:00 9,7 8,8 - - 18 10 - - W 1016,5 22 0,0
23.04.2018 07:00:00 9,0 8,3 - - 18 10 - - W 1016,0 21 0,0
23.04.2018 06:00:00 8,8 8,2 - - 18 10 - - W 1015,7 21 0,0
23.04.2018 05:00:00 8,7 8,2 - - 16 9 - - W 1015,5 23 0,0
23.04.2018 04:00:00 8,5 8,0 - - 16 9 - - W 1015,0 14 0,0
23.04.2018 03:00:00 8,5 7,9 - - 16 9 - - W 1015,0 16 0,0
23.04.2018 02:00:00 8,7 7,9 - - 16 9 - - W 1014,5 16 0,0
23.04.2018 01:00:00 9,0 8,1 - - 24 13 - - W 1014,5 17 0,0
23.04.2018 00:00:00 9,0 8,0 - - 28 15 - - W 1014,1 18 0,0
22.04.2018 23:00:00 9,2 7,9 - - 28 15 - - W 1013,5 21 0,0
22.04.2018 22:00:00 9,5 8,0 - - 31 17 50 27 W 1013,0 23 0,0
22.04.2018 21:00:00 9,3 7,8 - - 26 14 - - W 1012,6 24 0,0
22.04.2018 20:00:00 9,9 8,0 - - 26 14 - - W 1012,0 23 0,0
22.04.2018 19:00:00 10,5 8,0 - - 28 15 - - W 1011,4 30 0,0
22.04.2018 18:00:00 10,9 8,1 - - 22 12 - - WZW 1011,2 30 0,0
22.04.2018 17:00:00 12,0 8,3 - - 22 12 - - WZW 1010,8 40 0,0
22.04.2018 16:00:00 12,7 8,8 - - 21 11 - - WZW 1010,9 40 0,0
22.04.2018 15:00:00 13,1 8,7 - - 22 12 - - W 1010,6 40 0,0
22.04.2018 14:00:00 13,0 9,5 - - 18 10 - - WZW 1010,3 35 0,0
22.04.2018 13:00:00 12,3 10,1 - - 18 10 - - W 1010,0 30 0,0
22.04.2018 12:00:00 11,0 10,3 - - 13 7 - - WZW 1009,6 15 0,0
22.04.2018 11:00:00 10,5 9,9 - - 13 7 - - ZW 1009,2 3,5 0,0
22.04.2018 10:00:00 10,4 9,4 12,0 10,4 11 6 - - ZW 1009,4 13 0,0
22.04.2018 09:00:00 10,2 9,5 - - 11 6 - - ZW 1009,4 35 0,2
22.04.2018 08:00:00 9,8 9,3 - - 15 8 - - Z 1009,3 20 0,0
22.04.2018 07:00:00 9,7 9,3 - - 9 5 - - WZW 1009,1 21 0,0
22.04.2018 06:00:00 9,6 9,3 - - 2 1 - - ZZW 1009,0 3,3 0,0
22.04.2018 05:00:00 9,6 9,2 - - 9 5 - - ZW 1009,1 2,9 0,0
22.04.2018 04:00:00 9,6 9,1 - - 9 5 - - ZW 1009,7 3,9 0,0
22.04.2018 03:00:00 9,5 8,9 - - 5 3 - - ZW 1010,1 5 0,0
22.04.2018 02:00:00 9,8 8,9 - - 11 6 - - ZZW 1010,7 6 0,0
22.04.2018 01:00:00 10,4 8,9 - - 8 4 - - ZZW 1011,3 9 0,0
22.04.2018 00:00:00 10,3 8,8 - - 5 3 - - Z 1011,5 8 0,0
21.04.2018 23:00:00 12,2 9,9 - - 11 6 - - Z 1011,3 10 0,0
21.04.2018 22:00:00 14,3 11,3 - - 9 5 - - ZO 1011,3 13 0,0
21.04.2018 21:00:00 14,0 11,5 - - 5 3 - - OZO 1011,9 9 0,0
21.04.2018 20:00:00 15,4 11,4 - - 2 1 - - ZZO 1012,3 11 0,0
21.04.2018 19:00:00 16,6 12,4 - - 5 3 - - OZO 1012,7 13 0,0
21.04.2018 18:00:00 17,3 11,9 - - 8 4 - - Z 1013,7 20 0,0
21.04.2018 17:00:00 17,2 11,7 - - 15 8 - - OZO 1014,3 16 0,0
21.04.2018 16:00:00 17,1 11,5 - - 15 8 - - OZO 1015,3 15 0,0
21.04.2018 15:00:00 16,4 11,2 - - 21 11 - - OZO 1016,0 14 0,0
21.04.2018 14:00:00 16,0 10,2 - - 24 13 - - OZO 1016,8 14 0,0
21.04.2018 13:00:00 16,3 9,9 - - 18 10 - - OZO 1017,6 18 0,0
21.04.2018 12:00:00 15,6 9,2 - - 18 10 - - OZO 1018,5 22 0,0
21.04.2018 11:00:00 15,1 9,6 - - 18 10 - - OZO 1019,4 24 0,0
21.04.2018 10:00:00 13,8 8,9 11,2 10,2 15 8 - - OZO 1019,9 27 0,0
21.04.2018 09:00:00 12,3 8,2 - - 8 4 - - O 1020,5 24 0,0
21.04.2018 08:00:00 10,1 6,6 - - 5 3 - - ONO 1021,0 30 0,0
21.04.2018 07:00:00 7,3 4,6 - - 5 3 - - O 1021,2 40 0,0
21.04.2018 06:00:00 7,0 4,0 - - 8 4 - - ONO 1021,4 45 0,0
21.04.2018 05:00:00 7,3 3,2 - - 11 6 - - NO 1021,8 50 0,0
21.04.2018 04:00:00 6,2 4,5 - - 8 4 - - NO 1022,3 35 0,0
21.04.2018 03:00:00 6,8 4,3 - - 4 2 - - NNO 1022,8 40 0,0
21.04.2018 02:00:00 7,2 4,4 - - 5 3 - - NNW 1023,3 35 0,0
21.04.2018 01:00:00 7,0 4,2 - - 9 5 - - N 1023,9 40 0,0
21.04.2018 00:00:00 7,8 5,0 - - 8 4 - - NNO 1024,3 40 0,0
20.04.2018 23:00:00 8,3 6,2 - - 15 8 - - NNW 1024,3 25 0,0
20.04.2018 22:00:00 9,0 6,6 - - 13 7 - - NNW 1024,7 35 0,0
20.04.2018 21:00:00 9,3 7,0 - - 11 6 - - NW 1024,9 30 0,0

tt = temperatuur
td = dauwpunt
tt -20cm = temperatuur -20cm
tt -100cm = temperatuur -100cm
ff = windsnelheid
fx = windstoten
dd = windrichting
ppp = luchtdruk
vv = zicht
rr = neerslag

Weerstations in de omgeving